PulseSat

PulseSat

COSMOS 2500 (755)

Last updated on March 21, 2019, 3:13 a.m. UTC

1 40001U 14032A   19078.65702956 -.00000038  00000-0  00000-0 0  9992
2 40001  65.5367  42.8913 0006425 232.1950 308.2198  2.13102774 37058
UTC
Height (km)
Latitude
Longitude
Inclination
Orbital Period

Next 30 passes for location: Hong Kong

Rise time Rise Azimuth (degrees) Set time Set Azimuth (degrees) Duration Max altitude (degrees)

No matching passes for this satellites

PulseSat

PulseSat is the new satellites software and hardware trackering solution by Pulsely.
Satellite Two Line Element Set source: US Air Force Space Command

Download PulseSat for iOS
© 2017 Pulsely Limited